�N����,����,�~����,�C��,���x,�C��,����,���ϕ���,�ő�u�ԕ���,�ő厞����,���˗�,�I�_���x,�n�����x,�ő啗���N��,DTYPE
"17/07/29","00:10",0.0,25.3,93.9,1001.5,300.1,0.6,1.2,323.1,0.00,24.3,26.2,"00:08:16",1
"17/07/29","00:20",0.0,25.3,93.9,1001.7,303.1,0.8,1.2,315.7,0.00,24.3,26.2,"00:12:32",1
"17/07/29","00:30",0.0,25.3,94.1,1001.7,308.5,1.0,1.7,319.6,0.00,24.3,25.9,"00:20:40",1
"17/07/29","00:40",0.0,25.3,94.1,1001.5,302.9,0.7,1.6,328.5,0.00,24.3,26.1,"00:36:00",1
"17/07/29","00:50",0.0,25.4,94.1,1001.5,315.3,0.8,1.3,342.1,0.00,24.4,25.9,"00:46:56",1
"17/07/29","01:00",0.0,25.4,94.2,1001.5,276.2,0.5,0.8,286.6,0.00,24.4,26.0,"00:58:24",1
"17/07/29","01:10",0.0,25.5,94.2,1001.5,314.3,0.6,1.6,340.1,0.00,24.5,26.1,"01:08:16",1
"17/07/29","01:20",0.0,25.6,94.2,1001.5,331.0,1.0,1.4,330.7,0.00,24.6,26.1,"01:17:04",1
"17/07/29","01:30",0.0,25.6,94.0,1001.2,325.2,0.8,1.6,309.1,0.00,24.6,26.2,"01:29:28",1
"17/07/29","01:40",0.0,25.6,93.8,1001.2,298.6,0.8,1.8,315.3,0.00,24.6,26.0,"01:30:08",1
"17/07/29","01:50",0.0,25.7,93.9,1001.2,324.0,1.0,1.4,329.9,0.00,24.7,26.1,"01:41:52",1
"17/07/29","02:00",0.0,25.9,93.7,1001.0,337.1,1.1,1.8,326.9,0.00,24.8,26.1,"01:53:36",1
"17/07/29","02:10",0.0,25.9,93.5,1001.0,336.0,1.0,1.4,338.4,0.00,24.8,26.0,"02:04:32",1
"17/07/29","02:20",0.0,25.8,93.4,1000.8,331.6,1.0,1.9,338.2,0.00,24.7,26.0,"02:12:24",1
"17/07/29","02:30",0.0,25.8,93.3,1000.8,325.0,1.0,1.4,322.8,0.00,24.7,25.9,"02:28:48",1
"17/07/29","02:40",0.0,25.9,93.2,1000.8,333.6,1.6,2.9,338.7,0.00,24.8,26.0,"02:37:36",1
"17/07/29","02:50",0.0,25.9,92.9,1000.8,340.0,1.2,2.0,350.0,0.00,24.7,25.9,"02:46:32",1
"17/07/29","03:00",0.0,25.9,92.7,1001.0,338.5,1.0,2.0,352.8,0.00,24.7,25.9,"02:50:48",1
"17/07/29","03:10",0.0,25.9,92.4,1000.8,335.6,1.2,2.2,343.8,0.00,24.6,25.9,"03:04:08",1
"17/07/29","03:20",0.0,25.9,92.2,1001.0,332.6,1.7,2.6,340.2,0.00,24.6,25.9,"03:14:00",1
"17/07/29","03:30",0.0,26.0,91.9,1000.8,332.6,1.5,2.2,347.4,0.00,24.6,25.9,"03:22:24",1
"17/07/29","03:40",0.0,26.1,91.8,1000.8,332.6,1.8,2.9,339.9,0.00,24.7,25.9,"03:31:04",1
"17/07/29","03:50",0.0,26.3,91.4,1000.5,331.1,2.2,3.6,336.2,0.00,24.8,25.8,"03:47:04",1
"17/07/29","04:00",0.0,26.3,91.0,1001.0,335.1,2.2,4.2,327.5,0.00,24.8,25.8,"03:51:20",1
"17/07/29","04:10",0.0,26.3,90.8,1001.0,331.5,1.8,3.5,308.6,0.00,24.7,25.9,"04:03:30",1
"17/07/29","04:20",0.0,26.3,90.7,1001.2,338.5,1.3,2.6,355.0,0.00,24.7,26.0,"04:14:16",1
"17/07/29","04:30",0.0,26.1,90.8,1001.2,344.1,1.3,2.8,344.1,0.00,24.5,26.0,"04:29:18",1
"17/07/29","04:40",0.0,26.0,91.0,1001.2,340.4,1.1,2.9,341.3,0.00,24.5,25.9,"04:31:44",1
"17/07/29","04:50",0.0,25.8,91.3,1001.5,319.1,1.1,1.7,336.3,0.00,24.3,26.0,"04:40:08",1
"17/07/29","05:00",0.0,25.8,91.6,1001.0,330.2,1.7,2.2,343.5,0.00,24.4,25.7,"04:53:20",1
"17/07/29","05:10",0.0,25.8,91.7,1001.2,332.6,1.5,2.7,351.0,0.00,24.4,25.6,"05:00:24",1
"17/07/29","05:20",0.0,25.8,91.8,1001.5,329.1,1.2,2.6,333.2,0.00,24.4,25.7,"05:16:24",1
"17/07/29","05:30",0.0,25.7,91.9,1001.2,344.6,1.2,2.2,346.8,0.00,24.3,25.6,"05:27:04",1
"17/07/29","05:40",0.0,25.7,92.2,1001.5,334.9,1.6,2.6,335.4,0.00,24.4,25.9,"05:36:48",1
"17/07/29","05:50",0.0,25.7,92.2,1001.0,334.6,1.5,2.9,329.3,0.00,24.4,25.8,"05:41:28",1
"17/07/29","06:00",0.0,25.7,92.2,1001.5,340.5,1.2,2.0,336.9,0.00,24.4,25.5,"05:55:44",1
"17/07/29","06:10",0.0,25.8,92.2,1001.2,336.8,1.3,2.4,331.8,0.00,24.5,25.5,"06:02:32",1
"17/07/29","06:20",0.0,25.9,92.1,1001.5,332.1,1.6,2.4,346.3,0.00,24.6,25.7,"06:18:16",1
"17/07/29","06:30",0.0,26.1,91.8,1001.7,332.4,1.3,2.2,322.8,0.01,24.7,25.6,"06:24:00",1
"17/07/29","06:40",0.0,26.4,91.4,1001.7,324.1,0.7,1.6,304.5,0.03,24.9,25.8,"06:32:08",1
"17/07/29","06:50",0.0,26.7,90.6,1001.2,321.6,0.3,1.0,328.4,0.03,25.1,25.6,"06:49:20",1
"17/07/29","07:00",0.0,26.9,89.8,1001.5,334.7,0.6,1.2,354.3,0.03,25.1,25.8,"06:56:48",1
"17/07/29","07:10",0.0,27.1,89.1,1001.5,339.2,0.8,1.9,329.8,0.05,25.2,25.6,"07:04:16",1
"17/07/29","07:20",0.0,28.0,86.5,1001.5,345.9,0.7,1.8,345.8,0.10,25.6,25.7,"07:13:28",1
"17/07/29","07:30",0.0,28.6,83.6,1001.0,323.8,0.5,1.1,350.1,0.11,25.6,25.5,"07:20:24",1
"17/07/29","07:40",0.0,29.1,81.8,1001.5,345.8,0.7,2.0,346.4,0.13,25.7,25.9,"07:33:36",1
"17/07/29","07:50",0.0,29.2,80.9,1000.8,284.2,0.5,1.2,229.6,0.15,25.6,25.8,"07:41:20",1
"17/07/29","08:00",0.0,29.4,80.4,1001.5,328.6,0.5,2.2,344.2,0.16,25.7,25.7,"07:57:36",1
"17/07/29","08:10",0.0,29.0,80.6,1001.0,334.8,1.1,2.9,348.4,0.13,25.4,25.9,"08:06:24",1
"17/07/29","08:20",0.0,28.9,81.3,1001.0,329.4,0.8,2.1,333.5,0.08,25.4,25.9,"08:13:12",1
"17/07/29","08:30",0.0,28.8,81.8,1001.2,321.8,1.0,1.8,333.7,0.07,25.4,26.1,"08:21:20",1
"17/07/29","08:40",0.0,28.7,83.2,1001.0,269.8,0.7,2.1,257.6,0.13,25.6,26.3,"08:32:32",1
"17/07/29","08:50",0.0,29.9,78.6,1001.2,303.3,1.0,2.2,2.1,0.28,25.8,26.2,"08:48:00",1
"17/07/29","09:00",0.0,30.8,75.6,1001.7,327.8,0.8,2.0,3.0,0.32,26.0,26.3,"08:52:48",1
"17/07/29","09:10",0.0,31.1,72.0,1002.2,352.5,0.8,2.2,345.4,0.36,25.5,26.2,"09:07:28",1
"17/07/29","09:20",0.0,31.3,71.2,1002.2,322.2,0.8,2.5,354.6,0.35,25.5,26.6,"09:13:20",1
"17/07/29","09:30",0.0,31.8,70.4,1001.9,321.7,0.8,2.7,348.8,0.36,25.8,26.6,"09:21:52",1
"17/07/29","09:40",0.0,31.6,69.5,1001.9,351.2,1.2,2.7,7.6,0.34,25.4,26.6,"09:37:04",1
"17/07/29","09:50",0.0,31.3,70.5,1002.4,4.0,1.2,2.5,353.4,0.24,25.3,26.8,"09:46:16",1
"17/07/29","10:00",0.0,30.8,72.6,1002.2,19.4,1.0,2.5,341.6,0.13,25.3,26.7,"09:59:20",1
"17/07/29","10:10",0.0,30.5,73.4,1001.9,340.4,1.0,2.1,359.5,0.13,25.2,26.7,"10:00:48",1
"17/07/29","10:20",0.0,31.3,72.0,1001.9,254.1,0.8,2.7,225.8,0.27,25.7,27.2,"10:17:44",1
"17/07/29","10:30",0.0,31.3,71.4,1001.7,239.5,0.7,2.1,218.3,0.22,25.5,27.1,"10:20:16",1
"17/07/29","10:40",0.0,31.1,71.1,1001.7,217.3,0.3,1.3,343.7,0.14,25.3,27.1,"10:38:16",1
"17/07/29","10:50",0.0,31.1,71.5,1001.5,267.0,0.7,2.4,357.6,0.19,25.4,26.9,"10:49:20",1
"17/07/29","11:00",0.0,32.0,68.6,1001.7,258.5,0.8,2.4,221.1,0.37,25.5,27.3,"10:53:20",1
"17/07/29","11:10",0.0,32.7,65.7,1001.9,86.4,0.6,1.8,355.9,0.40,25.5,27.4,"11:02:08",1
"17/07/29","11:20",0.0,32.9,64.9,1002.2,237.1,1.0,2.1,205.6,0.53,25.5,27.5,"11:10:16",1
"17/07/29","11:30",0.0,33.3,62.9,1002.4,75.5,0.6,1.9,203.9,0.38,25.3,27.6,"11:22:00",1
"17/07/29","11:40",0.0,32.5,66.7,1002.6,314.8,0.6,1.4,348.1,0.26,25.5,27.7,"11:36:56",1
"17/07/29","11:50",0.0,32.6,65.9,1002.2,221.0,0.6,1.4,3.7,0.27,25.4,27.9,"11:47:52",1
"17/07/29","12:00",0.0,32.7,66.6,1002.4,348.5,1.1,2.7,342.3,0.29,25.7,27.7,"11:53:20",1
"17/07/29","12:10",0.0,34.0,63.1,1002.2,5.8,0.7,1.8,2.8,0.55,26.0,28.2,"12:00:40",1
"17/07/29","12:20",0.0,33.2,64.4,1002.6,124.1,0.8,1.9,135.5,0.41,25.6,28.2,"12:16:40",1
"17/07/29","12:30",0.0,32.5,69.2,1002.2,110.2,0.5,1.7,81.7,0.16,26.2,28.3,"12:22:40",1
"17/07/29","12:40",0.0,32.5,69.6,1001.9,74.9,0.5,1.6,62.3,0.16,26.3,28.1,"12:35:52",1
"17/07/29","12:50",0.0,31.6,66.4,1001.9,5.0,1.5,3.4,338.0,0.16,24.6,28.4,"12:46:40",1
"17/07/29","13:00",0.0,32.9,66.4,1001.0,22.2,1.3,3.3,31.3,0.41,25.8,28.4,"12:54:32",1
"17/07/29","13:10",0.0,33.6,62.2,1001.2,25.3,1.7,3.9,19.6,0.59,25.4,28.4,"13:00:48",1
"17/07/29","13:20",0.0,33.2,61.1,1001.5,35.9,1.5,3.6,352.7,0.46,24.7,28.5,"13:18:16",1
"17/07/29","13:30",0.0,32.3,65.5,1001.0,20.7,1.3,3.5,340.9,0.21,25.0,28.6,"13:26:40",1
"17/07/29","13:40",0.0,32.8,62.1,1001.0,32.6,1.3,3.3,41.5,0.32,24.6,28.7,"13:33:04",1
"17/07/29","13:50",0.0,34.3,59.5,1001.0,14.8,0.7,2.0,11.5,0.48,25.3,28.5,"13:44:16",1
"17/07/29","14:00",0.0,34.2,60.4,1001.0,87.0,0.8,1.8,341.2,0.39,25.5,28.8,"13:53:28",1
"17/07/29","14:10",0.0,33.7,58.7,1001.5,141.8,1.2,2.7,215.0,0.39,24.5,28.7,"14:09:36",1
"17/07/29","14:20",0.0,33.7,60.8,1001.5,308.8,0.7,1.9,353.8,0.25,25.1,28.9,"14:16:48",1
"17/07/29","14:30",0.0,34.5,58.2,1001.5,348.6,1.2,2.5,317.0,0.43,25.1,28.7,"14:29:52",1
"17/07/29","14:40",0.0,33.6,58.2,1001.2,15.9,1.3,3.3,344.6,0.23,24.3,28.9,"14:33:04",1
"17/07/29","14:50",0.0,33.2,60.6,1000.5,20.9,0.8,1.8,1.8,0.17,24.6,29.0,"14:45:44",1
"17/07/29","15:00",0.0,32.4,65.5,1000.8,354.0,1.5,3.6,326.9,0.16,25.1,28.8,"14:55:20",1
"17/07/29","15:10",0.0,31.9,65.5,1000.0,345.6,1.7,3.2,350.5,0.14,24.7,28.7,"15:01:20",1
"17/07/29","15:20",0.0,32.2,65.8,999.8,349.5,1.8,3.2,330.8,0.17,25.0,29.0,"15:14:00",1
"17/07/29","15:30",0.0,32.5,65.3,999.8,350.6,1.5,3.1,349.5,0.21,25.2,28.8,"15:25:04",1
"17/07/29","15:40",0.0,33.3,63.6,999.6,354.9,1.5,3.4,351.9,0.29,25.5,28.9,"15:31:44",1
"17/07/29","15:50",0.0,33.9,61.6,1000.0,359.6,1.5,2.9,338.5,0.33,25.5,28.8,"15:49:36",1
"17/07/29","16:00",0.0,33.1,62.1,999.8,354.9,1.7,3.3,359.2,0.24,24.9,28.9,"15:57:12",1
"17/07/29","16:10",0.0,32.8,64.6,999.3,347.5,1.7,3.7,350.0,0.23,25.3,29.0,"16:01:20",1
"17/07/29","16:20",0.0,32.6,63.9,999.6,351.6,1.7,4.4,317.1,0.21,24.9,28.8,"16:14:56",1
"17/07/29","16:30",0.0,32.2,63.9,999.3,347.8,1.7,3.5,352.7,0.16,24.5,28.7,"16:20:02",1
"17/07/29","16:40",0.0,32.3,63.9,999.1,352.5,1.6,3.2,318.8,0.17,24.6,29.0,"16:36:24",1
"17/07/29","16:50",0.0,31.8,65.7,999.3,349.7,2.0,4.9,342.2,0.14,24.6,28.9,"16:46:40",1
"17/07/29","17:00",0.0,31.4,66.6,999.1,354.4,2.0,4.9,351.8,0.10,24.5,28.8,"16:57:44",1
"17/07/29","17:10",0.0,31.4,66.3,999.1,347.3,2.2,4.8,348.7,0.12,24.4,28.7,"17:09:20",1
"17/07/29","17:20",0.0,31.7,66.2,998.6,345.4,2.2,4.2,341.0,0.16,24.7,28.8,"17:17:12",1
"17/07/29","17:30",0.0,31.7,65.8,998.9,349.6,2.2,4.4,329.6,0.14,24.6,28.9,"17:20:48",1
"17/07/29","17:40",0.0,31.6,65.1,998.9,346.4,2.2,4.8,341.8,0.09,24.3,28.4,"17:35:12",1
"17/07/29","17:50",0.0,31.0,65.7,998.4,342.7,2.2,4.5,1.9,0.04,23.9,28.5,"17:40:32",1
"17/07/29","18:00",0.0,30.8,66.3,998.6,344.9,2.3,4.5,335.1,0.03,23.8,28.4,"17:51:04",1
"17/07/29","18:10",0.0,30.5,66.4,998.6,348.0,2.1,4.2,350.6,0.03,23.6,28.4,"18:05:44",1
"17/07/29","18:20",0.0,30.1,67.7,998.6,348.2,2.1,4.3,350.1,0.00,23.5,28.4,"18:18:08",1
"17/07/29","18:30",0.0,29.9,68.7,998.2,351.2,1.6,2.8,340.2,0.01,23.6,28.3,"18:20:02",1
"17/07/29","18:40",0.0,29.6,69.0,997.9,343.7,1.2,3.2,350.5,0.01,23.3,28.1,"18:32:00",1
"17/07/29","18:50",0.0,29.6,69.5,997.7,342.6,1.1,2.8,349.9,0.01,23.5,28.2,"18:49:44",1
"17/07/29","19:00",0.0,29.4,71.0,997.9,355.3,1.0,2.6,346.2,0.00,23.6,28.1,"18:56:08",1
"17/07/29","19:10",0.0,29.1,71.9,998.4,356.8,1.2,2.7,358.2,0.00,23.6,27.9,"19:04:48",1
"17/07/29","19:20",0.0,28.8,72.8,998.4,344.0,1.2,2.5,350.5,0.00,23.5,28.0,"19:10:08",1
"17/07/29","19:30",0.0,28.6,73.7,998.9,336.4,1.1,2.6,352.0,0.00,23.5,28.0,"19:27:20",1
"17/07/29","19:40",0.0,28.4,74.4,998.9,329.9,1.2,2.4,353.5,0.00,23.4,27.6,"19:31:44",1
"17/07/29","19:50",0.0,28.2,75.0,999.3,337.3,1.2,2.8,342.2,0.00,23.4,27.7,"19:42:08",1
"17/07/29","20:00",0.0,28.0,76.2,999.3,333.9,0.8,1.4,328.1,0.00,23.5,27.6,"19:59:12",1
"17/07/29","20:10",0.0,27.8,77.3,999.6,329.5,1.1,2.1,339.5,0.00,23.5,27.4,"20:09:36",1
"17/07/29","20:20",0.0,27.8,77.4,999.6,339.9,0.8,1.7,334.4,0.00,23.5,27.5,"20:13:20",1
"17/07/29","20:30",0.0,27.7,76.9,999.8,328.6,0.8,2.0,320.7,0.00,23.3,27.4,"20:27:20",1
"17/07/29","20:40",0.0,27.7,77.3,1000.0,347.6,1.1,2.1,318.0,0.00,23.4,27.4,"20:30:08",1
"17/07/29","20:50",0.0,27.7,76.9,1000.0,356.2,1.6,3.6,338.7,0.00,23.3,27.3,"20:44:40",1
"17/07/29","21:00",0.0,27.6,76.6,1000.3,348.9,1.5,4.4,321.4,0.00,23.2,27.2,"20:59:20",1
"17/07/29","21:10",0.0,27.5,77.6,1000.8,337.9,1.5,2.8,337.9,0.00,23.3,27.1,"21:01:36",1
"17/07/29","21:20",0.0,27.2,78.8,1000.5,341.0,1.6,2.6,341.4,0.00,23.2,27.2,"21:17:36",1
"17/07/29","21:30",0.0,27.1,79.8,1000.3,327.1,1.7,2.9,332.3,0.00,23.3,27.0,"21:22:08",1
"17/07/29","21:40",0.0,27.1,79.7,1000.3,315.3,1.6,2.9,313.7,0.00,23.3,27.1,"21:35:36",1
"17/07/29","21:50",0.0,27.0,79.6,1000.3,307.6,1.2,2.6,329.1,0.00,23.2,26.9,"21:49:12",1
"17/07/29","22:00",0.0,26.9,79.9,1000.5,316.9,1.1,3.5,337.2,0.00,23.2,27.1,"21:50:08",1
"17/07/29","22:10",0.0,26.8,80.3,1000.8,305.8,1.1,2.2,338.4,0.00,23.2,26.8,"22:00:16",1
"17/07/29","22:20",0.0,26.8,80.7,1000.5,325.6,1.3,2.5,342.6,0.00,23.2,26.9,"22:11:12",1
"17/07/29","22:30",0.0,26.6,80.6,1000.3,332.5,1.3,2.2,330.4,0.00,23.0,27.0,"22:28:16",1
"17/07/29","22:40",0.0,26.5,81.3,1000.3,327.7,1.5,2.7,332.2,0.00,23.1,27.0,"22:34:00",1
"17/07/29","22:50",0.0,26.4,81.3,1000.5,324.7,1.3,2.9,345.9,0.00,23.0,26.7,"22:46:08",1
"17/07/29","23:00",0.0,26.4,81.8,1000.3,328.1,1.7,2.7,333.2,0.00,23.1,26.7,"22:55:12",1
"17/07/29","23:10",0.0,26.3,82.4,1000.5,333.0,1.6,2.7,345.3,0.00,23.1,26.6,"23:05:04",1
"17/07/29","23:20",0.0,26.2,82.7,1000.5,332.9,1.3,2.5,338.4,0.00,23.1,26.7,"23:12:08",1
"17/07/29","23:30",0.0,26.2,83.0,1001.0,340.0,1.5,2.6,329.6,0.00,23.1,26.6,"23:23:28",1
"17/07/29","23:40",0.0,26.2,82.8,1000.5,334.6,2.0,2.8,346.6,0.00,23.1,26.6,"23:39:20",1
"17/07/29","23:50",0.0,26.1,82.7,1000.5,336.2,1.6,2.8,332.6,0.00,23.0,26.3,"23:40:16",1
"17/07/29","24:00",0.0,26.0,82.7,1000.5,327.5,1.3,1.9,328.4,0.00,22.9,26.5,"23:57:20",1
